| time (UTC) | temp C | wind direction | speed KPH | gust KPH | rain 1hr cm | rain 24hr cm | rain mn cm | humidity % | barometer mb |
| 20260506034017 | 0 | 0.0 | 0.0 | 0.00 | 1.24 | 0.76 | 95 | 1018.5 | |
| 20260506033015 | 0 | 87 | 0.0 | 1.6 | 0.00 | 1.24 | 0.76 | 95 | 1018.4 |
| 20260506032015 | 0 | 0.0 | 0.0 | 0.00 | 1.24 | 0.76 | 95 | 1018.3 | |
| 20260506031015 | 0 | 20 | 0.0 | 1.6 | 0.00 | 1.24 | 0.76 | 95 | 1018.1 |
| 20260506030016 | 0 | 246 | 0.0 | 1.6 | 0.00 | 1.24 | 0.76 | 95 | 1017.9 |
| 20260506025016 | 0 | 289 | 0.0 | 1.6 | 0.00 | 1.24 | 0.76 | 95 | 1017.9 |
| 20260506024017 | 0 | 0.0 | 0.0 | 0.00 | 1.24 | 0.76 | 95 | 1017.6 | |
| 20260506023017 | 0 | 0.0 | 0.0 | 0.00 | 1.24 | 0.76 | 95 | 1017.2 | |
| 20260506022015 | 0 | 0.0 | 0.0 | 0.00 | 1.24 | 0.76 | 95 | 1017.0 | |
| 20260506021015 | 0 | 0.0 | 0.0 | 0.00 | 1.24 | 0.76 | 95 | 1017.0 | |
| 20260506020015 | 0 | 0.0 | 0.0 | 0.00 | 1.24 | 0.76 | 95 | 1016.8 | |
| 20260506015016 | 0 | 0.0 | 0.0 | 0.00 | 1.24 | 0.76 | 95 | 1016.8 | |
| 20260506014016 | 0 | 297 | 0.0 | 1.6 | 0.00 | 1.24 | 0.76 | 95 | 1016.7 |
| 20260506013017 | 0 | 131 | 0.0 | 1.6 | 0.00 | 1.24 | 0.76 | 95 | 1016.5 |
| 20260506012037 | 0 | 0.0 | 0.0 | 0.00 | 1.24 | 0.76 | 94 | 1016.5 | |
| 20260506011015 | 0 | 304 | 0.0 | 1.6 | 0.00 | 1.24 | 0.76 | 94 | 1016.4 |
| 20260506010015 | 0 | 21 | 0.0 | 1.6 | 0.00 | 1.24 | 0.76 | 94 | 1016.2 |
| 20260506005035 | 0 | 96 | 0.0 | 1.6 | 0.00 | 1.24 | 0.76 | 94 | 1016.3 |
| 20260506004016 | 0 | 83 | 0.0 | 1.6 | 0.00 | 1.24 | 0.76 | 94 | 1016.3 |
| 20260506003016 | 0 | 301 | 0.0 | 3.2 | 0.00 | 1.24 | 0.76 | 94 | 1016.1 |
| 20260506002016 | 0 | 85 | 0.0 | 1.6 | 0.00 | 1.24 | 0.76 | 94 | 1016.1 |
| 20260506001037 | 0 | 85 | 0.0 | 1.6 | 0.00 | 1.24 | 0.76 | 94 | 1016.0 |
| 20260506000055 | 0 | 0.0 | 0.0 | 0.00 | 1.24 | 0.76 | 94 | 1015.8 | |
| 20260505235015 | 0 | 0.0 | 0.0 | 0.00 | 1.24 | 0.76 | 94 | 1015.9 | |
| 20260505234016 | 0 | 0.0 | 0.0 | 0.03 | 1.24 | 0.76 | 94 | 1015.9 | |
| 20260505233016 | 1 | 246 | 0.0 | 1.6 | 0.03 | 1.24 | 0.76 | 94 | 1015.8 |
| 20260505232017 | 1 | 20 | 0.0 | 1.6 | 0.05 | 1.24 | 0.76 | 94 | 1015.9 |
| 20260505231017 | 1 | 297 | 0.0 | 1.6 | 0.05 | 1.24 | 0.76 | 94 | 1015.8 |
| 20260505230017 | 1 | 231 | 0.0 | 1.6 | 0.08 | 1.24 | 0.76 | 94 | 1015.4 |
| 20260505225115 | 1 | 206 | 0.0 | 1.6 | 0.10 | 1.24 | 0.76 | 94 | 1015.2 |
| 20260505224035 | 1 | 231 | 0.0 | 1.6 | 0.10 | 1.22 | 0.74 | 93 | 1015.1 |
| 20260505223016 | 1 | 351 | 0.0 | 1.6 | 0.13 | 1.22 | 0.74 | 93 | 1015.1 |
| 20260505222036 | 1 | 0.0 | 0.0 | 0.13 | 1.19 | 0.71 | 93 | 1014.9 | |
| 20260505221016 | 1 | 0.0 | 0.0 | 0.15 | 1.17 | 0.71 | 93 | 1014.9 | |
| 20260505220016 | 1 | 110 | 0.0 | 1.6 | 0.15 | 1.17 | 0.69 | 93 | 1015.0 |
| 20260505215037 | 2 | 236 | 0.0 | 1.6 | 0.15 | 1.14 | 0.66 | 93 | 1015.3 |
| 20260505214035 | 1 | 247 | 0.0 | 1.6 | 0.15 | 1.12 | 0.64 | 93 | 1015.2 |
| 20260505213035 | 1 | 102 | 0.0 | 1.6 | 0.15 | 1.09 | 0.61 | 92 | 1015.2 |
| 20260505212016 | 2 | 102 | 0.0 | 1.6 | 0.18 | 1.09 | 0.61 | 92 | 1015.4 |
| 20260505211016 | 2 | 123 | 0.0 | 1.6 | 0.15 | 1.04 | 0.56 | 92 | 1015.5 |
| 20260505210016 | 2 | 266 | 0.0 | 1.6 | 0.15 | 1.02 | 0.53 | 92 | 1015.7 |
| 20260505205017 | 2 | 0.0 | 0.0 | 0.15 | 0.99 | 0.51 | 92 | 1016.0 | |
| 20260505204017 | 2 | 91 | 0.0 | 1.6 | 0.15 | 0.97 | 0.48 | 92 | 1015.9 |
| 20260505203015 | 2 | 270 | 0.0 | 3.2 | 0.15 | 0.94 | 0.46 | 92 | 1016.2 |
| 20260505202015 | 2 | 116 | 0.0 | 1.6 | 0.13 | 0.89 | 0.43 | 92 | 1016.3 |
| 20260505201015 | 3 | 107 | 0.0 | 1.6 | 0.13 | 0.89 | 0.41 | 92 | 1016.3 |
| 20260505200016 | 3 | 0.0 | 0.0 | 0.13 | 0.86 | 0.38 | 91 | 1016.3 | |
| 20260505195016 | 3 | 106 | 0.0 | 3.2 | 0.13 | 0.84 | 0.36 | 92 | 1016.3 |
| 20260505194017 | 3 | 259 | 0.0 | 1.6 | 0.10 | 0.81 | 0.33 | 92 | 1016.3 |
| 20260505193017 | 3 | 275 | 0.0 | 1.6 | 0.10 | 0.79 | 0.33 | 92 | 1016.3 |
| 20260505192015 | 3 | 133 | 0.0 | 1.6 | 0.08 | 0.79 | 0.30 | 93 | 1016.5 |
| 20260505191015 | 3 | 187 | 0.0 | 1.6 | 0.05 | 0.76 | 0.28 | 92 | 1016.6 |
| 20260505190016 | 2 | 118 | 0.0 | 1.6 | 0.05 | 0.74 | 0.25 | 92 | 1016.8 |
| 20260505185016 | 2 | 118 | 0.0 | 1.6 | 0.03 | 0.71 | 0.23 | 92 | 1016.8 |
| 20260505184017 | 2 | 102 | 0.0 | 1.6 | 0.03 | 0.71 | 0.23 | 93 | 1016.8 |
| 20260505183017 | 2 | 96 | 0.0 | 3.2 | 0.03 | 0.71 | 0.23 | 92 | 1016.9 |
| 20260505182017 | 2 | 103 | 0.0 | 3.2 | 0.03 | 0.71 | 0.23 | 92 | 1017.0 |
| 20260505181015 | 2 | 111 | 0.0 | 1.6 | 0.03 | 0.71 | 0.23 | 92 | 1017.2 |
| 20260505180015 | 2 | 101 | 0.0 | 1.6 | 0.03 | 0.71 | 0.23 | 93 | 1017.3 |
| 20260505175015 | 2 | 97 | 0.0 | 1.6 | 0.03 | 0.71 | 0.23 | 93 | 1017.3 |
| 20260505174016 | 2 | 113 | 0.0 | 3.2 | 0.03 | 0.71 | 0.23 | 93 | 1017.3 |
| 20260505173036 | 2 | 79 | 0.0 | 3.2 | 0.00 | 0.69 | 0.20 | 93 | 1017.5 |
| 20260505172017 | 2 | 67 | 0.0 | 4.8 | 0.00 | 0.69 | 0.20 | 93 | 1017.4 |
| 20260505171014 | 2 | 100 | 0.0 | 1.6 | 0.00 | 0.69 | 0.20 | 93 | 1017.6 |
| 20260505170035 | 2 | 98 | 1.6 | 4.8 | 0.00 | 0.69 | 0.20 | 93 | 1017.7 |
| 20260505165016 | 2 | 105 | 0.0 | 4.8 | 0.00 | 0.69 | 0.20 | 93 | 1017.8 |
| 20260505164016 | 2 | 102 | 0.0 | 4.8 | 0.00 | 0.69 | 0.20 | 93 | 1017.8 |
| 20260505163016 | 2 | 109 | 1.6 | 4.8 | 0.00 | 0.69 | 0.20 | 93 | 1017.8 |
| 20260505162017 | 2 | 96 | 0.0 | 6.4 | 0.00 | 0.69 | 0.20 | 93 | 1017.8 |
| 20260505161017 | 2 | 91 | 0.0 | 3.2 | 0.00 | 0.69 | 0.20 | 93 | 1017.8 |
| 20260505153036 | 2 | 99 | 0.0 | 3.2 | 0.03 | 0.69 | 0.20 | 94 | 1017.9 |
| 20260505152016 | 2 | 100 | 0.0 | 1.6 | 0.03 | 0.69 | 0.20 | 94 | 1018.0 |
| 20260505151017 | 2 | 116 | 0.0 | 3.2 | 0.03 | 0.69 | 0.20 | 94 | 1017.9 |
| 20260505125017 | 3 | 194 | 1.6 | 4.8 | 0.05 | 0.61 | 0.13 | 92 | 1016.3 |
| 20260505124037 | 3 | 245 | 0.0 | 4.8 | 0.08 | 0.61 | 0.13 | 92 | 1016.0 |
| 20260505123015 | 4 | 82 | 0.0 | 4.8 | 0.05 | 0.58 | 0.10 | 92 | 1015.7 |
| 20260505122015 | 4 | 149 | 1.6 | 4.8 | 0.05 | 0.56 | 0.08 | 92 | 1015.8 |
| 20260505121015 | 5 | 22 | 0.0 | 3.2 | 0.08 | 0.56 | 0.08 | 93 | 1015.6 |
| 20260505120036 | 5 | 41 | 0.0 | 1.6 | 0.05 | 0.53 | 0.05 | 93 | 1015.6 |
| 20260505115016 | 5 | 264 | 0.0 | 1.6 | 0.05 | 0.53 | 0.05 | 93 | 1015.5 |
| 20260505114016 | 5 | 340 | 0.0 | 1.6 | 0.05 | 0.51 | 0.05 | 92 | 1015.5 |
| 20260505113017 | 5 | 75 | 0.0 | 1.6 | 0.05 | 0.51 | 0.05 | 92 | 1015.4 |
| 20260505112015 | 5 | 265 | 0.0 | 1.6 | 0.03 | 0.51 | 0.03 | 92 | 1015.5 |
| 20260505111015 | 5 | 258 | 0.0 | 1.6 | 0.00 | 0.48 | 0.00 | 91 | 1015.3 |
| 20260505102117 | 6 | 276 | 0.0 | 1.6 | 0.00 | 0.48 | 0.00 | 92 | 1014.7 |
| 20260505101015 | 6 | 260 | 0.0 | 1.6 | 0.00 | 0.48 | 0.00 | 92 | 1014.5 |
| 20260505100015 | 6 | 252 | 0.0 | 1.6 | 0.00 | 0.48 | 0.00 | 93 | 1014.4 |
| 20260505095016 | 6 | 125 | 0.0 | 1.6 | 0.00 | 0.48 | 0.00 | 93 | 1014.3 |
| 20260505094016 | 6 | 0.0 | 0.0 | 0.00 | 0.48 | 0.00 | 92 | 1014.5 | |
| 20260505093017 | 6 | 0.0 | 0.0 | 0.00 | 0.48 | 0.00 | 92 | 1014.6 | |
| 20260505092017 | 6 | 0.0 | 0.0 | 0.00 | 0.48 | 0.00 | 91 | 1014.7 | |
| 20260505091037 | 7 | 0.0 | 0.0 | 0.00 | 0.48 | 0.00 | 91 | 1014.6 | |
| 20260505090015 | 7 | 0.0 | 0.0 | 0.00 | 0.48 | 0.00 | 91 | 1014.4 | |
| 20260505085015 | 7 | 125 | 0.0 | 1.6 | 0.00 | 0.48 | 0.00 | 91 | 1014.5 |
| 20260505084016 | 7 | 0.0 | 0.0 | 0.00 | 0.48 | 0.00 | 90 | 1014.6 | |
| 20260505083016 | 7 | 125 | 0.0 | 1.6 | 0.00 | 0.48 | 0.00 | 90 | 1014.7 |
| 20260505082016 | 7 | 125 | 1.6 | 4.8 | 0.00 | 0.48 | 0.00 | 91 | 1014.9 |
| 20260505081017 | 7 | 136 | 0.0 | 1.6 | 0.00 | 0.48 | 0.00 | 92 | 1015.0 |
| 20260505080017 | 7 | 0.0 | 0.0 | 0.00 | 0.48 | 0.00 | 92 | 1015.1 | |
| 20260505075015 | 7 | 0.0 | 0.0 | 0.00 | 0.48 | 0.00 | 91 | 1015.3 | |
| 20260505074015 | 7 | 132 | 0.0 | 1.6 | 0.00 | 0.48 | 0.00 | 91 | 1015.4 |
| 20260505073016 | 7 | 132 | 0.0 | 1.6 | 0.00 | 0.48 | 0.00 | 92 | 1015.5 |
| 20260505072016 | 7 | 141 | 0.0 | 3.2 | 0.00 | 0.48 | 0.00 | 92 | 1015.4 |
| 20260505071016 | 7 | 140 | 0.0 | 3.2 | 0.00 | 0.48 | 0.00 | 93 | 1015.7 |
| 20260505070017 | 7 | 109 | 0.0 | 1.6 | 0.00 | 0.48 | 0.00 | 93 | 1015.8 |
| 20260505065034 | 7 | 109 | 0.0 | 1.6 | 0.00 | 0.48 | 0.00 | 93 | 1015.9 |
| 20260505064015 | 7 | 109 | 0.0 | 1.6 | 0.00 | 0.48 | 0.00 | 93 | 1015.9 |
| 20260505063016 | 7 | 79 | 0.0 | 1.6 | 0.03 | 0.48 | 0.00 | 93 | 1015.9 |
| 20260505062036 | 7 | 0.0 | 0.0 | 0.03 | 0.48 | 0.00 | 93 | 1015.9 | |
| 20260505061036 | 7 | 0.0 | 0.0 | 0.05 | 0.48 | 0.00 | 93 | 1016.0 | |
| 20260505060037 | 7 | 0.0 | 0.0 | 0.08 | 0.48 | 0.00 | 92 | 1016.0 | |
| 20260505055017 | 7 | 79 | 0.0 | 1.6 | 0.15 | 0.48 | 0.48 | 92 | 1015.9 |
| 20260505054015 | 7 | 0.0 | 0.0 | 0.33 | 0.48 | 0.48 | 92 | 1015.8 | |
| 20260505053055 | 7 | 0.0 | 0.0 | 0.33 | 0.46 | 0.46 | 92 | 1016.0 | |
| 20260505052015 | 7 | 0.0 | 0.0 | 0.36 | 0.46 | 0.46 | 91 | 1016.1 | |
| 20260505051016 | 7 | 78 | 0.0 | 1.6 | 0.36 | 0.43 | 0.43 | 91 | 1016.4 |
| 20260505041015 | 9 | 121 | 0.0 | 1.6 | 0.08 | 0.08 | 0.08 | 81 | 1016.2 |
| 20260505040016 | 10 | 78 | 0.0 | 1.6 | 0.05 | 0.05 | 0.05 | 77 | 1016.0 |
| 20260505035016 | 11 | 80 | 0.0 | 3.2 | 0.03 | 0.03 | 0.03 | 70 | 1016.0 |